TimeNZDT,TemperatureF,Dew PointF,Humidity,Sea Level PressureIn,VisibilityMPH,Wind Direction,Wind SpeedMPH,Gust SpeedMPH,PrecipitationIn,Events,Conditions,WindDirDegrees,DateUTC
12:50 AM,-16.6,-9999,N/A,28.83,6.2,WNW,4.6,-,N/A,,Ice Crystals,300,2013-01-21 11:50:00
1:00 AM,-17,,,,7,WNW,4.6,,,Snow,Snow,300,2013-01-21 12:00:00
3:50 AM,-16.6,-9999,N/A,28.85,6.2,WNW,6.9,-,N/A,Snow,Light Snow Grains,290,2013-01-21 14:50:00
5:50 AM,-13.0,-9999,N/A,28.86,3.7,WNW,5.8,-,N/A,Snow,Light Snow Grains,290,2013-01-21 16:50:00
6:50 AM,-11.2,-9999,N/A,28.86,3.7,WNW,6.9,-,N/A,Snow,Light Snow Grains,300,2013-01-21 17:50:00
7:00 AM,-12,,,,4,WNW,6.9,,,Snow,Snow Grains,300,2013-01-21 18:00:00
7:50 AM,-11.2,-9999,N/A,28.87,3.7,NNW,8.1,-,N/A,Snow,Light Snow Grains,330,2013-01-21 18:50:00
8:50 AM,-13.0,-9999,N/A,28.88,5.0,NW,10.4,-,N/A,Snow,Light Snow Grains,320,2013-01-21 19:50:00
9:50 AM,-13.0,-9999,N/A,28.88,5.0,WNW,8.1,-,N/A,Snow,Light Snow Grains,290,2013-01-21 20:50:00
10:50 AM,-13.0,-9999,N/A,28.88,5.0,NNW,8.1,-,N/A,Snow,Light Snow Grains,330,2013-01-21 21:50:00
11:50 AM,-13.0,-9999,N/A,28.88,5.0,NW,9.2,-,N/A,Snow,Light Snow Grains,310,2013-01-21 22:50:00
12:50 PM,-13.0,-9999,N/A,28.86,3.7,NNW,6.9,-,N/A,Snow,Light Snow Grains,330,2013-01-21 23:50:00
1:00 PM,-13,,,,4,North,6.9,,,Snow,Snow Grains,350,2013-01-22 00:00:00
1:50 PM,-13.0,-9999,N/A,28.86,6.2,North,9.2,-,N/A,Snow,Light Snow Grains,10,2013-01-22 00:50:00
2:50 PM,-13.0,-9999,N/A,28.86,6.2,North,4.6,-,N/A,Snow,Light Snow Grains,350,2013-01-22 01:50:00
3:50 PM,-13.0,-9999,N/A,28.85,6.2,North,8.1,-,N/A,Snow,Light Snow Grains,350,2013-01-22 02:50:00
4:50 PM,-14.8,-9999,N/A,28.84,6.2,NNE,10.4,-,N/A,Snow,Light Snow Grains,30,2013-01-22 03:50:00
5:50 PM,-13.0,-9999,N/A,28.83,6.2,North,5.8,-,N/A,Snow,Light Snow Grains,10,2013-01-22 04:50:00
6:50 PM,-14.8,-9999,N/A,28.83,6.2,Variable,6.9,-,N/A,Snow,Light Snow Grains,0,2013-01-22 05:50:00
7:00 PM,-14,,,,7,,6.9,,,Snow,Snow Grains,,2013-01-22 06:00:00
7:50 PM,-13.0,-9999,N/A,28.82,6.2,North,8.1,-,N/A,Snow,Light Snow Grains,10,2013-01-22 06:50:00
8:50 PM,-13.0,-9999,N/A,28.81,6.2,North,4.6,-,N/A,Snow,Light Snow Grains,350,2013-01-22 07:50:00
9:50 PM,-13.0,-9999,N/A,28.80,6.2,NE,10.4,-,N/A,Snow,Light Snow Grains,50,2013-01-22 08:50:00